EHI
0 0 0 0 0 0 0 0 0 0 0 0 0 2 6 8 11 18 25 27 25 24 26 26 25 29 39 46 46 40 35 30 24 21 19 16 12 12 16 20 26 30 26 23
0 0 0 0 0 0 0 0 0 0 0 0 0 2 5 8 11 19 26 27 25 28 36 39 36 38 47 52 50 45 41 35 27 22 21 18 14 13 17 23 28 30 27 24
0 0 0 0 0 0 0 0 0 0 0 0 0 2 5 9 12 18 25 27 27 34 48 55 51 49 54 56 54 50 50 44 32 26 23 21 18 16 20 26 29 29 27 26
0 0 0 0 0 0 0 0 0 0 0 0 0 2 7 11 14 18 23 27 30 37 51 60 61 58 57 55 54 58 60 55 42 31 25 23 22 20 22 28 29 29 28 28
0 0 0 0 0 0 0 0 0 0 0 0 0 2 6 11 14 18 21 25 30 38 50 61 66 66 60 54 57 66 70 64 52 39 30 26 23 21 24 30 31 29 28 27
0 0 0 0 0 0 0 0 0 0 0 0 0 1 3 7 11 17 22 25 30 40 53 63 69 72 66 58 60 70 75 69 59 47 37 32 28 25 28 32 32 28 27 26
0 0 0 0 0 0 0 0 0 0 0 0 0 1 3 6 8 12 20 28 35 43 54 64 72 76 74 68 68 74 78 73 63 53 46 42 37 32 32 33 30 25 24 25
0 0 0 0 0 0 0 0 1 1 0 0 1 2 4 5 5 8 17 29 39 44 51 60 68 74 76 76 77 79 79 75 66 57 52 48 43 36 33 32 28 23 21 21
0 0 0 0 0 0 0 1 2 2 1 0 1 4 5 5 6 8 16 28 39 43 47 55 63 67 70 75 79 80 78 73 65 57 53 50 46 39 33 30 26 21 20 20
0 0 0 0 0 0 0 1 2 2 1 0 1 3 6 8 10 12 19 28 37 42 45 53 61 61 62 68 74 76 75 72 65 57 54 51 47 42 36 31 25 24 25 25
0 0 0 0 0 0 0 2 2 1 0 0 0 2 6 11 13 16 23 32 38 41 45 54 62 61 59 65 71 71 72 72 67 60 56 53 49 45 42 36 32 32 34 35
0 0 0 0 0 0 0 2 2 1 0 0 0 2 8 14 17 21 28 37 44 48 51 59 66 65 63 67 72 72 70 69 66 62 59 56 52 50 48 45 43 43 44 43
0 0 0 0 0 0 0 1 2 1 0 0 0 3 12 19 23 27 34 43 50 55 59 65 72 72 68 70 72 69 65 63 63 62 60 56 55 54 52 51 50 51 49 47
0 0 0 0 0 0 0 1 1 0 0 0 1 6 16 23 27 33 40 47 52 56 60 66 72 73 70 69 68 63 58 57 59 61 60 56 55 54 52 51 50 50 49 47
0 0 0 0 0 0 0 0 0 0 0 0 2 10 19 25 32 39 44 48 50 53 56 59 64 67 66 65 64 61 59 59 60 60 59 57 56 53 50 47 45 45 44 42
0 0 0 0 0 0 0 0 0 0 1 2 5 13 23 30 36 40 43 45 48 51 53 54 55 57 59 60 60 60 61 62 62 59 56 56 55 52 49 45 42 39 37 37
0 0 0 0 0 0 0 0 0 0 1 5 9 17 25 31 35 37 38 41 45 49 52 52 51 51 52 53 53 54 57 59 59 56 53 53 52 49 47 44 40 36 35 34
1 1 1 0 0 0 0 0 0 0 2 6 12 18 24 29 32 34 36 39 42 47 49 49 47 46 45 45 44 46 50 54 53 50 49 49 48 46 46 44 40 37 35 35
1 2 1 0 0 0 0 0 0 2 5 9 12 17 23 27 30 34 39 40 41 43 45 45 42 40 39 38 39 42 47 49 47 46 46 47 45 45 46 45 41 38 36 35
1 1 1 0 0 0 1 0 0 4 9 13 16 21 27 31 33 37 40 39 38 39 41 40 38 36 35 35 37 41 44 46 44 43 43 44 43 42 42 42 40 38 36 35
0 0 0 0 1 3 4 4 5 10 17 21 24 28 33 37 37 36 36 35 33 34 35 37 37 35 34 33 34 36 39 39 38 38 38 38 36 34 34 36 37 36 35 34
1 2 2 2 4 8 10 11 15 23 28 29 29 30 33 36 36 33 33 32 30 29 32 35 36 35 32 31 31 32 33 32 30 31 32 30 28 26 28 31 32 32 30 29
3 5 5 5 8 11 15 18 23 30 33 31 29 28 28 30 31 32 32 31 29 29 31 32 31 30 28 27 27 28 28 27 25 25 24 24 22 21 24 27 27 26 25 23
6 7 7 8 10 13 16 20 23 25 26 27 27 26 25 28 29 29 29 28 27 27 26 25 23 23 23 24 25 24 24 24 23 21 19 19 19 20 22 22 20 21 21 20
11 11 11 11 13 15 16 18 19 19 20 22 24 24 24 25 26 24 22 22 22 21 20 17 16 17 20 23 24 23 22 22 22 20 17 16 17 18 19 17 14 14 15 15
16 15 14 14 15 16 16 16 17 17 18 21 22 22 22 24 22 19 17 17 17 17 16 15 12 13 17 22 24 24 23 23 21 19 16 15 17 18 17 15 12 9 9 10
Wind_Speed
14 14 13 13 11 10 9 9 8 6 5 7 8 9 13 13 13 14 14 14 14 14 14 14 13 13 12 10 9 8 7 6 5 4 4 3 3 2 2 3 4 4 3 3
15 17 16 15 12 11 11 12 10 7 7 7 7 7 11 13 13 14 15 15 16 15 15 14 13 13 13 12 10 9 7 7 6 4 3 3 3 3 3 2 4 4 4 4
20 16 15 16 15 14 14 13 10 7 7 9 7 7 9 11 11 13 15 15 16 16 17 16 14 13 13 13 12 10 9 8 7 6 4 3 3 2 2 3 3 4 4 4
18 17 16 17 16 15 14 12 9 9 9 7 6 7 8 10 10 11 13 14 15 15 16 16 15 14 14 14 13 10 9 8 7 7 6 6 5 4 4 3 3 4 4 4
17 17 17 18 16 15 14 12 11 10 10 10 8 8 6 8 11 11 12 13 14 15 16 16 15 14 14 14 13 11 10 8 8 7 6 5 4 3 3 3 4 3 3 4
18 17 17 16 15 15 13 13 12 11 9 12 12 11 8 7 10 10 11 12 13 15 16 16 15 13 12 13 12 12 11 9 8 7 7 6 5 4 3 4 4 4 3 3
18 19 17 15 16 15 14 12 9 10 9 11 12 12 6 7 9 11 12 12 13 14 15 15 15 15 12 12 12 12 12 10 9 8 7 6 5 4 4 4 4 3 3 3
16 16 17 16 16 14 15 16 12 11 10 9 9 8 5 4 6 7 10 13 14 14 14 15 14 14 12 13 12 12 12 10 9 8 6 5 5 4 4 4 4 4 3 2
13 14 14 15 15 16 16 15 14 13 14 11 7 5 7 4 5 6 7 11 13 13 14 14 14 13 12 11 11 12 11 10 9 9 7 6 5 4 4 4 4 2 1 2
13 13 14 13 13 16 17 14 10 11 10 11 9 8 7 7 7 6 6 7 8 10 11 13 13 12 11 11 9 11 12 10 9 8 7 7 6 4 3 3 3 2 2 1
15 14 14 14 15 15 15 15 12 9 9 10 9 7 4 4 3 4 6 6 7 9 9 10 11 10 10 10 10 9 10 10 9 8 6 6 6 5 5 3 3 2 2 2
12 12 13 14 13 15 15 15 14 10 9 10 10 6 2 2 3 4 5 7 6 6 7 8 10 10 8 8 8 8 8 9 9 8 7 6 5 5 5 4 3 3 2 2
7 9 12 13 13 14 15 14 14 12 10 10 11 5 2 2 5 5 6 7 7 6 6 7 8 9 7 7 7 7 7 8 8 8 7 6 6 6 5 4 4 3 3 3
7 12 14 14 10 10 12 14 13 13 11 10 10 6 1 2 5 5 6 7 7 7 6 5 6 7 6 6 6 7 7 7 7 7 7 7 6 5 4 4 4 4 4 3
9 13 15 17 15 13 12 12 12 13 13 12 7 5 3 2 6 5 5 7 7 7 6 5 6 6 5 5 5 5 5 5 5 6 6 6 5 5 4 4 4 4 4 4
9 12 13 16 16 14 13 11 11 13 13 12 8 3 4 4 6 5 5 7 7 6 5 4 6 6 6 5 4 4 4 4 5 5 5 5 5 5 5 4 4 4 4 4
9 10 13 14 15 14 15 10 10 10 7 7 6 3 6 6 6 6 6 7 7 6 4 4 4 4 4 4 4 3 3 3 3 3 4 4 4 4 4 4 4 4 4 3
10 9 9 12 12 16 8 6 7 7 5 2 4 4 6 8 8 7 7 7 6 5 5 4 3 4 4 4 3 3 2 2 3 3 3 3 3 3 3 3 3 3 3 3
9 8 9 10 12 11 6 4 4 4 2 1 4 5 7 7 9 8 8 7 6 6 5 4 3 3 4 3 2 2 2 1 2 2 2 3 3 3 2 2 2 2 2 3
10 8 10 11 12 10 4 2 5 5 2 3 5 6 6 6 4 5 6 6 6 6 5 4 4 4 3 2 2 2 2 1 0 0 1 1 1 2 3 2 2 2 2 3
9 10 13 13 11 4 3 3 5 4 1 4 6 8 7 6 6 5 6 6 5 5 5 4 4 4 3 2 2 2 2 1 1 1 0 0 1 2 2 2 1 1 2 2
8 8 9 10 9 3 5 3 3 4 5 7 8 7 8 8 8 7 7 6 6 5 5 4 4 4 3 3 3 2 2 2 1 1 0 0 1 2 1 1 1 2 2 2
5 4 3 1 1 4 5 6 6 6 7 6 7 7 7 7 6 6 6 5 5 5 4 4 4 4 3 3 2 2 2 2 2 2 2 2 2 2 1 2 2 2 2 2
2 2 1 2 3 4 5 5 6 6 6 6 7 7 5 5 5 5 4 4 3 4 3 3 3 3 3 2 2 1 1 1 2 2 2 2 2 2 1 1 2 2 2 2
3 3 0 2 3 4 4 4 5 5 6 7 6 5 5 4 4 4 3 3 3 3 2 3 2 2 2 2 2 2 2 1 2 2 2 2 2 2 2 2 2 2 1 1
4 2 2 1 2 2 3 3 4 5 5 6 6 6 5 5 4 3 3 3 2 2 2 2 2 2 3 2 2 3 2 1 2 3 3 2 2 2 2 2 1 1 1 2
Wind_Direction
228 235 242 247 249 251 261 262 242 225 212 244 231 173 171 180 180 175 174 173 175 176 171 167 169 165 162 159 160 165 168 160 163 168 174 173 172 176 165 160 148 155 170 170
235 232 241 253 255 244 254 259 253 232 204 233 237 203 181 183 191 184 181 177 177 175 170 170 173 170 167 165 165 167 169 168 175 172 178 173 170 178 169 164 150 165 176 185
234 238 235 244 251 253 249 251 255 255 233 233 250 235 196 189 204 192 184 181 179 177 172 172 176 176 171 170 171 174 174 173 181 172 174 174 163 184 167 165 160 176 187 194
239 242 243 245 244 248 254 255 260 261 259 254 256 255 209 192 201 202 193 183 180 177 172 173 177 179 177 174 174 169 170 171 176 178 186 188 187 190 180 167 169 178 189 192
241 240 243 245 248 249 258 265 262 260 261 262 243 259 245 196 200 203 200 187 183 176 172 173 178 178 178 175 172 169 167 172 176 185 189 198 198 186 173 161 170 178 186 195
252 247 244 247 250 254 259 262 262 259 260 254 240 238 235 209 196 186 200 192 181 174 169 168 171 168 174 173 171 168 164 171 176 185 190 197 203 191 178 173 176 189 191 200
243 244 241 242 247 244 243 248 248 245 241 247 246 244 226 197 191 189 187 188 177 170 167 167 167 168 172 171 168 165 164 173 179 186 191 191 196 192 185 185 191 206 194 192
237 238 234 230 236 243 237 239 240 250 255 257 259 260 251 199 188 190 179 173 171 169 169 167 169 167 172 172 167 163 164 171 178 183 184 185 182 192 194 202 205 206 202 186
248 246 239 231 230 237 244 243 245 250 262 270 268 275 276 223 204 194 182 169 167 169 171 167 167 167 169 171 167 162 160 168 177 182 179 179 183 195 197 195 204 211 188 187
259 265 254 238 233 231 243 245 248 249 254 264 262 247 237 197 203 182 171 153 151 160 165 162 162 165 168 167 160 160 161 168 173 178 181 181 187 191 187 194 207 197 193 187
249 260 257 240 230 235 229 237 246 261 264 264 264 260 247 168 172 175 176 150 145 154 161 156 150 151 156 158 159 157 158 163 169 175 177 180 180 185 185 194 203 195 193 186
243 251 259 251 240 240 242 236 237 241 250 264 271 264 257 166 154 147 121 106 113 126 139 137 137 138 149 154 154 158 161 169 171 172 172 174 175 178 187 194 199 193 188 195
258 250 250 247 238 228 236 238 240 247 248 248 256 243 215 152 111 110 109 114 112 105 103 114 127 134 148 151 153 158 163 169 170 169 168 169 182 186 191 192 193 194 193 202
259 254 252 252 250 246 240 242 242 242 249 251 250 237 212 76 87 85 99 109 109 110 103 111 124 124 131 142 148 155 166 169 168 168 170 176 183 184 186 186 190 195 199 204
256 252 254 262 262 256 250 247 244 246 252 258 250 219 172 137 109 106 112 108 111 113 122 124 123 126 132 130 139 144 153 158 162 168 174 176 174 173 180 189 196 198 203 211
250 262 260 259 262 262 256 247 248 256 255 254 253 190 146 99 100 110 107 106 109 109 111 117 116 132 137 134 136 135 150 152 156 167 172 169 174 180 189 195 200 203 205 213
247 253 258 258 258 259 251 240 239 243 254 257 261 169 130 111 110 114 111 112 109 107 107 102 112 120 119 123 122 127 117 126 145 157 163 163 176 187 192 201 205 212 216 218
248 256 255 256 256 250 256 251 237 237 246 224 132 134 121 111 106 88 89 96 100 106 100 86 85 99 102 98 106 110 127 132 146 159 163 162 180 195 196 197 210 222 227 228
240 241 250 251 248 249 256 272 285 275 232 97 137 131 122 119 118 98 77 80 87 81 78 79 83 88 104 101 91 107 138 152 170 170 176 175 182 191 196 202 219 231 234 241
228 219 239 249 253 248 230 281 287 260 196 64 96 106 116 123 121 94 76 72 79 77 70 59 56 58 75 90 116 116 112 99 110 219 214 196 191 199 205 199 214 229 237 247
226 224 232 244 252 263 330 293 263 238 115 66 84 94 92 81 74 91 89 76 65 68 65 59 54 51 58 68 96 108 96 86 64 21 347 203 180 211 211 192 211 230 244 251
242 236 237 247 247 241 352 348 34 72 75 79 82 82 87 86 83 87 84 79 73 65 53 54 61 49 45 61 71 70 45 24 22 32 352 342 277 260 239 211 243 243 238 246
250 267 265 307 61 67 39 55 72 81 82 79 85 83 82 91 93 94 90 82 77 73 60 52 57 50 39 49 53 48 24 16 2 352 346 341 297 268 261 242 253 251 245 248
246 301 190 114 104 90 72 64 70 79 85 85 84 84 84 91 94 94 90 81 72 66 56 53 66 53 33 31 23 14 15 17 346 331 323 303 284 269 274 260 260 259 258 263
317 317 241 126 109 91 81 63 64 75 83 82 82 80 77 84 84 89 88 78 73 64 49 35 38 36 17 21 11 3 17 2 308 295 294 291 270 255 266 266 282 283 301 273
297 305 270 187 130 133 128 97 83 78 84 85 80 74 72 76 76 87 90 80 71 59 45 40 12 356 354 358 10 0 348 321 287 282 278 273 278 277 259 242 265 7 252 217